Retour au catalogue

COSMOS 660

ActifMilitairePO
NORAD 7337·PAYLOAD·🇷🇺 Russia

Lancé Jun 18, 1974 depuis Plesetsk Cosmodrome

Loading…

Prochains Passages (prochaines 24 heures)

TLE

FraisSource: Space-Track

Époque: Sep 14, 2026, 13:28 UTC

1 07337U 74044A   26257.56133827  .00006538  00000-0  25726-3 0  9993
2 07337  82.9387 191.6179 0428555  72.7110 292.0508 14.68666231654734

Suivez COSMOS 660 en temps réel avec AllMySat

Download on the App Store